Regional Weather Roundup
Issued by NWS Kansas City/Pleasant Hill, MO

Home | Current Version | Previous Version | Graphics & Text | Print | Product List | Glossary Off
Versions: 1 2 3 4 5 6 7 8 9 10 11 12 13 14 15 16 17 18 19 20 21 22 23 24 25 26 27 28 29 30 31 32 33 34 35 36 37 38 39 40 41 42 43 44 45 46 47 48 49 50

432
ASUS43 KEAX 202310
RWREAX

WEATHER ROUNDUP FOR EASTERN KANSAS AND NORTHWEST MISSOURI
NATIONAL WEATHER SERVICE KANSAS CITY/PLEASANT HILL MO
600 PM CDT SUN AUG 20 2017

KSZ040-057-103>105-MOZ028-029-037-043-210000-
...KANSAS CITY METROPOLITAN AREA...

CITY           SKY/WX    TMP DP  RH WIND       PRES   REMARKS
K.C. INTL      PTSUNNY   85  73  67 E16       29.98F HX  91
K.C. DOWNTOWN  SUNNY     90  74  59 E10       29.96F HX  99
LEES SUMMIT    MOSUNNY   85  74  69 E7        29.99F HX  92
OLATHE - IXD   MOSUNNY   85  74  69 SE9       29.98F HX  92
OLATHE - OJC   MOSUNNY   84  75  74 SE10      29.98F HX  92
LAWRENCE       CLOUDY    88  75  65 E10       29.95S HX  97

$$

MOZ001>008-011>017-020>025-030>033-038>040-044>046-053-054-210000-
...NORTHERN AND CENTRAL MISSOURI...

CITY           SKY/WX    TMP DP  RH WIND       PRES   REMARKS
ST. JOSEPH     MOSUNNY   86  71  60 S13       29.96F HX  91
MOSBY          CLOUDY    84  70  61 SE6       29.98F
WARRENSBURG    MOSUNNY   84  73  70 E7        29.98F HX  91
WHITEMAN AFB   PTSUNNY   88  81  79 SE6       29.98F THUNDER HX 105
CLINTON        TSTM      75  63  64 SE9G29    30.01R VSB 1
SEDALIA        CLOUDY    89  77  67 E3        30.02F HX 101
WARSAW         NOT AVBL
CHILLICOTHE      N/A     85  73  67 S10       29.96F HX  91
KIRKSVILLE     PTSUNNY   80  67  64 N12       30.01R

$$

MOZ041-047>049-056>058-063>065-088>090-097-210000-
...EASTERN AND SOUTHERN MISSOURI...

CITY           SKY/WX    TMP DP  RH WIND       PRES   REMARKS
ST. LOUIS INTL MOSUNNY   90  71  53 S10       30.00F HX  96
SPIRIT OF STL  SUNNY     91  74  57 SW7       29.99S HX 100
COLUMBIA       MOSUNNY   87  73  62 NW5       30.03S HX  94
JEFFERSON CITY MOSUNNY   89  76  65 W7        29.99F HX 100
ROLLA          MOSUNNY   86  74  67 S6        30.05F HX  94
OSAGE BEACH    MOSUNNY   85  75  72 SE3       30.02F HX  93
SPRINGFIELD    MOSUNNY   88  76  67 SE8       30.03S HX  99
BRANSON        PTSUNNY   90  73  58 E13       30.05S HX  98
JOPLIN         MOSUNNY   93  73  52 SW12      29.99S HX 102
WEST PLAINS    MOSUNNY   85  69  58 S5        30.07F

$$

IAZ060-094-KSZ022-034>040-054-083-096-NEZ052-066-093-210000-
...KANSAS...SOUTHEAST NEBRASKA AND IOWA...

CITY           SKY/WX    TMP DP  RH WIND       PRES   REMARKS
TOPEKA         SUNNY     88  76  67 SE18      29.94F HX  99
MANHATTAN      SUNNY     94  76  55 SE13      29.90R HX 106
EMPORIA        MOSUNNY   91  72  53 SE12      29.94S HX  98
CHANUTE        SUNNY     93  76  57 S10       29.96S HX 105
WICHITA        MOSUNNY   96  69  41 S18G24    29.91S HX 102
OMAHA          MOSUNNY   85  65  51 S16G24    29.94S
LINCOLN        SUNNY     86  72  62 SE13      29.92S HX  92
FALLS CITY     PTSUNNY   85  68  56 SE14      29.94F
LAMONI         CLOUDY    70  65  84 CALM      29.98F
DES MOINES     MOSUNNY   80  66  62 SW7       29.96F

$$





USA.gov is the U.S. government's official web portal to all federal, state and local government web resources and services.